Time,TemperatureF,DewpointF,PressureIn,WindDirection,WindDirectionDegrees,WindSpeedMPH,WindSpeedGustMPH,Humidity,HourlyPrecipIn,Conditions,Clouds,dailyrainin,SoftwareType,DateUTC
2013-03-02 00:14:00,22.6,14.7,29.96,NW,315,2.7,2.7,71,0.00,,,0.00,WUHU21623XXSP,2013-03-02 05:14:00,
2013-03-02 01:14:00,22.2,14.6,29.95,NNW,338,8.1,8.1,72,0.00,,,0.00,WUHU21623XXSP,2013-03-02 06:14:00,
2013-03-02 02:14:00,21.5,13.9,29.95,NW,315,9.6,9.6,72,0.00,,,0.00,WUHU21623XXSP,2013-03-02 07:14:00,
2013-03-02 03:14:00,21.3,14.0,29.94,NNW,338,0.0,0.0,73,0.00,,,0.00,WUHU21623XXSP,2013-03-02 08:14:00,
2013-03-02 04:14:00,20.8,13.9,29.93,North,0,1.6,1.6,74,0.00,,,0.00,WUHU21623XXSP,2013-03-02 09:14:00,
2013-03-02 05:14:00,20.4,13.8,29.93,NNE,23,9.6,9.6,75,0.00,,,0.00,WUHU21623XXSP,2013-03-02 10:14:00,
2013-03-02 06:14:00,20.4,14.1,29.93,NNW,338,0.0,0.0,76,0.00,,,0.00,WUHU21623XXSP,2013-03-02 11:14:00,
2013-03-02 07:14:00,20.1,14.1,29.94,NNW,338,7.6,7.6,77,0.00,,,0.00,WUHU21623XXSP,2013-03-02 12:14:00,
2013-03-02 08:14:00,20.2,14.5,29.94,North,0,0.0,0.0,78,0.00,,,0.00,WUHU21623XXSP,2013-03-02 13:14:00,
2013-03-02 09:14:00,21.0,15.2,29.95,North,0,10.7,10.7,78,0.00,,,0.00,WUHU21623XXSP,2013-03-02 14:14:00,
2013-03-02 10:14:00,22.9,16.5,29.95,North,0,6.7,6.7,76,0.00,,,0.00,WUHU21623XXSP,2013-03-02 15:14:00,
2013-03-02 11:14:00,24.9,16.9,29.95,North,0,9.2,9.2,71,0.00,,,0.00,WUHU21623XXSP,2013-03-02 16:14:00,
2013-03-02 12:10:00,25.5,16.8,29.95,NNW,337,9.4,9.4,69,0.00,,,0.00,WUHU21623XXSP,2013-03-02 17:10:00,
2013-03-02 12:15:00,25.6,16.6,29.95,NNW,337,6.9,9.4,68,0.00,,,0.00,WUHU21623XXSP,2013-03-02 17:15:00,
2013-03-02 12:20:00,25.6,16.6,29.94,NE,45,0.0,9.4,68,0.00,,,0.00,WUHU21623XXSP,2013-03-02 17:20:00,
2013-03-02 12:28:00,25.8,16.8,29.95,WNW,292,7.2,7.2,68,0.00,,,0.00,WUHU21623XXSP,2013-03-02 17:28:00,
2013-03-02 12:33:00,25.8,16.8,29.95,NE,45,10.3,10.3,68,0.00,,,0.00,WUHU21623XXSP,2013-03-02 17:33:00,
2013-03-02 12:38:00,25.6,16.6,29.95,North,0,5.6,10.3,68,0.00,,,0.00,WUHU21623XXSP,2013-03-02 17:38:00,
2013-03-02 12:45:00,25.6,16.2,29.94,NW,315,6.9,6.9,67,0.00,,,0.00,WUHU21623XXSP,2013-03-02 17:45:00,
2013-03-02 12:50:00,25.8,16.4,29.94,NE,45,0.0,6.9,67,0.00,,,0.00,WUHU21623XXSP,2013-03-02 17:50:00,
2013-03-02 12:55:00,26.0,16.9,29.94,NW,315,6.0,6.0,68,0.00,,,0.00,WUHU21623XXSP,2013-03-02 17:55:00,
2013-03-02 13:02:00,26.2,16.4,29.94,NNW,337,5.8,9.8,66,0.00,,,0.00,WUHU21623XXSP,2013-03-02 18:02:00,
2013-03-02 13:07:00,26.0,16.3,29.94,NW,315,7.6,7.6,66,0.00,,,0.00,WUHU21623XXSP,2013-03-02 18:07:00,
2013-03-02 13:12:00,26.2,16.8,29.93,NNW,337,7.2,7.6,67,0.00,,,0.00,WUHU21623XXSP,2013-03-02 18:12:00,
2013-03-02 13:17:00,26.5,17.1,29.93,NNE,22,4.7,7.2,67,0.00,,,0.00,WUHU21623XXSP,2013-03-02 18:17:00,
2013-03-02 13:22:00,26.5,16.7,29.94,NNW,337,6.9,6.9,66,0.00,,,0.00,WUHU21623XXSP,2013-03-02 18:22:00,
2013-03-02 13:27:00,26.7,16.6,29.93,WNW,292,9.2,9.2,65,0.00,,,0.00,WUHU21623XXSP,2013-03-02 18:27:00,
2013-03-02 13:32:00,27.1,17.0,29.93,North,0,8.9,9.2,65,0.00,,,0.00,WUHU21623XXSP,2013-03-02 18:32:00,
2013-03-02 13:37:00,27.1,17.0,29.93,NNW,337,0.0,8.9,65,0.00,,,0.00,WUHU21623XXSP,2013-03-02 18:37:00,
2013-03-02 13:43:00,27.4,17.2,29.93,NNW,337,6.5,6.5,65,0.00,,,0.00,WUHU21623XXSP,2013-03-02 18:43:00,
2013-03-02 13:48:00,27.6,17.1,29.92,North,0,0.0,6.5,64,0.00,,,0.00,WUHU21623XXSP,2013-03-02 18:48:00,
2013-03-02 13:52:00,27.6,17.1,29.92,North,0,8.3,8.3,64,0.00,,,0.00,WUHU21623XXSP,2013-03-02 18:52:00,
2013-03-02 13:57:00,28.0,17.4,29.92,NNE,22,2.7,8.3,64,0.00,,,0.00,WUHU21623XXSP,2013-03-02 18:57:00,
2013-03-02 14:02:00,28.5,17.6,29.92,NNW,337,8.1,8.1,63,0.00,,,0.00,WUHU21623XXSP,2013-03-02 19:02:00,
2013-03-02 14:08:00,28.3,17.4,29.92,North,0,0.0,8.1,63,0.00,,,0.00,WUHU21623XXSP,2013-03-02 19:08:00,
2013-03-02 14:13:00,28.3,17.4,29.92,NE,45,8.7,8.7,63,0.00,,,0.00,WUHU21623XXSP,2013-03-02 19:13:00,
2013-03-02 14:18:00,28.5,17.6,29.92,NNW,337,10.3,10.3,63,0.00,,,0.00,WUHU21623XXSP,2013-03-02 19:18:00,
2013-03-02 14:23:00,28.5,17.6,29.92,North,0,7.4,10.3,63,0.00,,,0.00,WUHU21623XXSP,2013-03-02 19:23:00,
2013-03-02 14:28:00,28.3,17.4,29.91,NNE,22,8.1,8.1,63,0.00,,,0.00,WUHU21623XXSP,2013-03-02 19:28:00,
2013-03-02 14:33:00,28.0,17.1,29.92,NNW,337,10.7,10.7,63,0.00,,,0.00,WUHU21623XXSP,2013-03-02 19:33:00,
2013-03-02 14:38:00,27.8,16.9,29.92,NNW,337,8.7,10.7,63,0.00,,,0.00,WUHU21623XXSP,2013-03-02 19:38:00,
2013-03-02 14:43:00,27.8,16.9,29.92,North,0,7.8,10.7,63,0.00,,,0.00,WUHU21623XXSP,2013-03-02 19:43:00,
2013-03-02 14:48:00,27.6,16.7,29.92,North,0,2.0,7.8,63,0.00,,,0.00,WUHU21623XXSP,2013-03-02 19:48:00,
2013-03-02 14:53:00,27.8,16.9,29.92,North,0,0.0,2.0,63,0.00,,,0.00,WUHU21623XXSP,2013-03-02 19:53:00,
2013-03-02 14:58:00,28.2,17.3,29.92,North,0,3.6,3.6,63,0.00,,,0.00,WUHU21623XXSP,2013-03-02 19:58:00,
2013-03-02 15:03:00,28.5,17.6,29.92,NE,45,0.0,3.6,63,0.00,,,0.00,WUHU21623XXSP,2013-03-02 20:03:00,
2013-03-02 15:08:00,28.5,17.2,29.92,NE,45,0.0,0.0,62,0.00,,,0.00,WUHU21623XXSP,2013-03-02 20:08:00,
2013-03-02 15:13:00,28.3,17.0,29.92,WNW,292,7.2,7.2,62,0.00,,,0.00,WUHU21623XXSP,2013-03-02 20:13:00,
2013-03-02 15:18:00,28.2,16.9,29.92,NW,315,6.5,7.2,62,0.00,,,0.00,WUHU21623XXSP,2013-03-02 20:18:00,
2013-03-02 15:25:00,27.8,16.5,29.92,NW,315,0.0,6.5,62,0.00,,,0.00,WUHU21623XXSP,2013-03-02 20:25:00,
2013-03-02 15:30:00,28.0,16.7,29.92,NNW,337,8.7,8.7,62,0.00,,,0.00,WUHU21623XXSP,2013-03-02 20:30:00,
2013-03-02 15:35:00,27.8,16.5,29.92,NW,315,6.5,8.7,62,0.00,,,0.00,WUHU21623XXSP,2013-03-02 20:35:00,
2013-03-02 15:40:00,27.6,16.3,29.92,NW,315,2.0,6.5,62,0.00,,,0.00,WUHU21623XXSP,2013-03-02 20:40:00,
2013-03-02 15:45:00,27.6,16.3,29.92,North,0,0.0,4.3,62,0.00,,,0.00,WUHU21623XXSP,2013-03-02 20:45:00,
2013-03-02 15:50:00,27.6,16.3,29.92,NNW,337,0.0,6.0,62,0.00,,,0.00,WUHU21623XXSP,2013-03-02 20:50:00,
2013-03-02 15:55:00,27.6,16.7,29.92,NW,315,7.8,7.8,63,0.00,,,0.00,WUHU21623XXSP,2013-03-02 20:55:00,
2013-03-02 16:00:00,27.8,16.9,29.92,NNW,337,0.0,7.8,63,0.00,,,0.00,WUHU21623XXSP,2013-03-02 21:00:00,
2013-03-02 16:05:00,27.6,16.3,29.92,NNW,337,0.0,0.0,62,0.00,,,0.00,WUHU21623XXSP,2013-03-02 21:05:00,
2013-03-02 16:10:00,27.6,16.3,29.92,NW,315,9.4,9.4,62,0.00,,,0.00,WUHU21623XXSP,2013-03-02 21:10:00,
2013-03-02 16:15:00,27.4,16.5,29.92,NNW,337,1.6,9.4,63,0.00,,,0.00,WUHU21623XXSP,2013-03-02 21:15:00,
2013-03-02 16:21:00,27.4,16.5,29.92,NNW,337,0.0,1.6,63,0.00,,,0.00,WUHU21623XXSP,2013-03-02 21:21:00,
2013-03-02 16:26:00,27.4,16.5,29.92,NNW,337,5.8,5.8,63,0.00,,,0.00,WUHU21623XXSP,2013-03-02 21:26:00,
2013-03-02 16:32:00,27.3,16.4,29.92,North,0,0.0,5.8,63,0.00,,,0.00,WUHU21623XXSP,2013-03-02 21:32:00,
2013-03-02 16:37:00,27.1,16.2,29.91,NNW,337,0.0,0.0,63,0.00,,,0.00,WUHU21623XXSP,2013-03-02 21:37:00,
2013-03-02 16:42:00,27.1,16.2,29.92,North,0,0.0,0.0,63,0.00,,,0.00,WUHU21623XXSP,2013-03-02 21:42:00,
2013-03-02 16:47:00,27.1,16.2,29.92,NNW,337,0.0,3.6,63,0.00,,,0.00,WUHU21623XXSP,2013-03-02 21:47:00,
2013-03-02 16:52:00,26.9,16.0,29.92,NNW,337,2.9,3.6,63,0.00,,,0.00,WUHU21623XXSP,2013-03-02 21:52:00,
2013-03-02 16:57:00,26.7,15.8,29.92,NE,45,0.0,2.9,63,0.00,,,0.00,WUHU21623XXSP,2013-03-02 21:57:00,
2013-03-02 17:02:00,26.4,15.6,29.92,North,0,0.0,0.0,63,0.00,,,0.00,WUHU21623XXSP,2013-03-02 22:02:00,
2013-03-02 17:07:00,26.2,15.7,29.92,NNE,22,0.0,0.0,64,0.00,,,0.00,WUHU21623XXSP,2013-03-02 22:07:00,
2013-03-02 17:12:00,26.2,15.7,29.92,NE,45,0.0,0.0,64,0.00,,,0.00,WUHU21623XXSP,2013-03-02 22:12:00,
2013-03-02 17:17:00,26.0,15.5,29.92,NNW,337,2.9,2.9,64,0.00,,,0.00,WUHU21623XXSP,2013-03-02 22:17:00,
2013-03-02 17:22:00,26.0,15.9,29.92,NNW,337,0.0,2.9,65,0.00,,,0.00,WUHU21623XXSP,2013-03-02 22:22:00,
2013-03-02 17:27:00,26.0,15.9,29.92,NNW,337,0.0,0.0,65,0.00,,,0.00,WUHU21623XXSP,2013-03-02 22:27:00,
2013-03-02 17:32:00,25.8,15.4,29.92,NNW,337,3.6,3.6,64,0.00,,,0.00,WUHU21623XXSP,2013-03-02 22:32:00,
2013-03-02 17:37:00,25.6,15.2,29.92,NNW,337,0.0,3.6,64,0.00,,,0.00,WUHU21623XXSP,2013-03-02 22:37:00,
2013-03-02 17:42:00,25.6,15.5,29.92,North,0,0.0,4.9,65,0.00,,,0.00,WUHU21623XXSP,2013-03-02 22:42:00,
2013-03-02 17:47:00,25.5,15.4,29.92,North,0,0.0,4.9,65,0.00,,,0.00,WUHU21623XXSP,2013-03-02 22:47:00,
2013-03-02 17:53:00,25.3,15.2,29.92,NNW,337,0.0,0.0,65,0.00,,,0.00,WUHU21623XXSP,2013-03-02 22:53:00,
2013-03-02 17:58:00,25.1,15.0,29.93,NNW,337,0.0,0.0,65,0.00,,,0.00,WUHU21623XXSP,2013-03-02 22:58:00,
2013-03-02 18:03:00,24.9,14.9,29.92,NNW,337,0.0,0.0,65,0.00,,,0.00,WUHU21623XXSP,2013-03-02 23:03:00,
2013-03-02 18:08:00,24.9,14.9,29.93,NW,315,0.4,0.4,65,0.00,,,0.00,WUHU21623XXSP,2013-03-02 23:08:00,
2013-03-02 18:14:00,24.7,15.0,29.93,NNW,337,0.0,0.4,66,0.00,,,0.00,WUHU21623XXSP,2013-03-02 23:14:00,
2013-03-02 18:19:00,24.7,15.0,29.92,NNW,337,0.0,0.0,66,0.00,,,0.00,WUHU21623XXSP,2013-03-02 23:19:00,
2013-03-02 18:25:00,24.7,15.0,29.92,NNW,337,0.0,0.0,66,0.00,,,0.00,WUHU21623XXSP,2013-03-02 23:25:00,
2013-03-02 18:34:00,24.6,14.9,29.93,NNW,337,0.0,0.0,66,0.00,,,0.00,WUHU21623XXSP,2013-03-02 23:34:00,
2013-03-02 18:39:00,24.6,14.9,29.92,NNW,337,0.0,0.0,66,0.00,,,0.00,WUHU21623XXSP,2013-03-02 23:39:00,
2013-03-02 18:44:00,24.4,15.1,29.92,NNW,337,0.0,0.0,67,0.00,,,0.00,WUHU21623XXSP,2013-03-02 23:44:00,
2013-03-02 18:49:00,24.4,15.1,29.92,NNW,337,0.0,0.0,67,0.00,,,0.00,WUHU21623XXSP,2013-03-02 23:49:00,
2013-03-02 18:54:00,24.4,15.1,29.92,NNW,337,0.0,0.0,67,0.00,,,0.00,WUHU21623XXSP,2013-03-02 23:54:00,
2013-03-02 18:59:00,24.2,14.9,29.92,NNW,337,0.0,0.0,67,0.00,,,0.00,WUHU21623XXSP,2013-03-02 23:59:00,
2013-03-02 19:04:00,24.0,14.7,29.92,NNW,337,0.0,0.0,67,0.00,,,0.00,WUHU21623XXSP,2013-03-03 00:04:00,
2013-03-02 19:09:00,24.0,14.7,29.92,NNW,337,0.0,0.0,67,0.00,,,0.00,WUHU21623XXSP,2013-03-03 00:09:00,
2013-03-02 19:15:00,23.3,14.4,29.92,NNW,337,0.0,0.0,68,0.00,,,0.00,WUHU21623XXSP,2013-03-03 00:15:00,
2013-03-02 19:20:00,23.1,14.2,29.92,NNW,337,0.0,0.0,68,0.00,,,0.00,WUHU21623XXSP,2013-03-03 00:20:00,
2013-03-02 19:25:00,22.9,14.3,29.92,NNW,337,0.0,0.0,69,0.00,,,0.00,WUHU21623XXSP,2013-03-03 00:25:00,
2013-03-02 19:30:00,22.6,14.0,29.92,NNW,337,0.0,0.0,69,0.00,,,0.00,WUHU21623XXSP,2013-03-03 00:30:00,
2013-03-02 19:35:00,22.2,14.0,29.92,NNW,337,0.0,0.0,70,0.00,,,0.00,WUHU21623XXSP,2013-03-03 00:35:00,
2013-03-02 19:40:00,22.0,13.8,29.92,NNW,337,0.0,0.0,70,0.00,,,0.00,WUHU21623XXSP,2013-03-03 00:40:00,
2013-03-02 19:45:00,21.9,14.0,29.92,NNW,337,0.0,0.0,71,0.00,,,0.00,WUHU21623XXSP,2013-03-03 00:45:00,
2013-03-02 19:50:00,21.7,13.8,29.92,NNW,337,0.0,0.0,71,0.00,,,0.00,WUHU21623XXSP,2013-03-03 00:50:00,
2013-03-02 19:55:00,21.3,13.4,29.92,NNW,337,0.0,0.0,71,0.00,,,0.00,WUHU21623XXSP,2013-03-03 00:55:00,
2013-03-02 20:00:00,21.1,13.2,29.92,NNW,337,0.0,0.0,71,0.00,,,0.00,WUHU21623XXSP,2013-03-03 01:00:00,
2013-03-02 20:05:00,21.1,13.5,29.92,NNW,337,0.0,0.0,72,0.00,,,0.00,WUHU21623XXSP,2013-03-03 01:05:00,
2013-03-02 20:10:00,20.8,13.2,29.92,NNW,337,0.0,0.0,72,0.00,,,0.00,WUHU21623XXSP,2013-03-03 01:10:00,
2013-03-02 20:15:00,20.6,13.0,29.92,NNW,337,0.0,0.0,72,0.00,,,0.00,WUHU21623XXSP,2013-03-03 01:15:00,
2013-03-02 20:20:00,20.4,12.9,29.92,NNW,337,0.0,0.0,72,0.00,,,0.00,WUHU21623XXSP,2013-03-03 01:20:00,
2013-03-02 20:25:00,20.4,13.2,29.92,NNW,337,0.0,0.0,73,0.00,,,0.00,WUHU21623XXSP,2013-03-03 01:25:00,
2013-03-02 20:30:00,20.2,13.0,29.92,NNW,337,0.0,0.0,73,0.00,,,0.00,WUHU21623XXSP,2013-03-03 01:30:00,
2013-03-02 20:35:00,20.1,12.9,29.92,NNW,337,0.0,0.0,73,0.00,,,0.00,WUHU21623XXSP,2013-03-03 01:35:00,
2013-03-02 20:40:00,19.9,12.7,29.92,NNW,337,0.0,0.0,73,0.00,,,0.00,WUHU21623XXSP,2013-03-03 01:40:00,
2013-03-02 20:45:00,19.5,12.6,29.92,NNW,337,0.0,0.0,74,0.00,,,0.00,WUHU21623XXSP,2013-03-03 01:45:00,
2013-03-02 20:50:00,19.5,12.6,29.92,NNW,337,0.0,0.0,74,0.00,,,0.00,WUHU21623XXSP,2013-03-03 01:50:00,
2013-03-02 20:55:00,19.5,12.6,29.92,NNW,337,0.0,0.0,74,0.00,,,0.00,WUHU21623XXSP,2013-03-03 01:55:00,
2013-03-02 21:00:00,19.5,12.9,29.92,NNW,337,0.0,0.0,75,0.00,,,0.00,WUHU21623XXSP,2013-03-03 02:00:00,
2013-03-02 21:05:00,19.5,12.9,29.92,NNW,337,0.0,0.0,75,0.00,,,0.00,WUHU21623XXSP,2013-03-03 02:05:00,
2013-03-02 21:10:00,19.5,12.9,29.92,NNW,337,0.0,0.0,75,0.00,,,0.00,WUHU21623XXSP,2013-03-03 02:10:00,
2013-03-02 21:15:00,19.9,13.3,29.92,NNW,337,0.0,0.0,75,0.00,,,0.00,WUHU21623XXSP,2013-03-03 02:15:00,
2013-03-02 21:20:00,19.9,13.3,29.92,NNW,337,0.0,0.0,75,0.00,,,0.00,WUHU21623XXSP,2013-03-03 02:20:00,
2013-03-02 21:25:00,19.9,13.6,29.92,NNW,337,0.0,0.0,76,0.00,,,0.00,WUHU21623XXSP,2013-03-03 02:25:00,
2013-03-02 21:29:00,20.1,13.8,29.92,NNW,337,0.0,0.0,76,0.00,,,0.00,WUHU21623XXSP,2013-03-03 02:29:00,
2013-03-02 21:40:00,20.2,13.9,29.92,NNW,337,0.0,0.0,76,0.00,,,0.00,WUHU21623XXSP,2013-03-03 02:40:00,
2013-03-02 21:45:00,20.4,14.1,29.92,NNW,337,0.0,0.0,76,0.00,,,0.00,WUHU21623XXSP,2013-03-03 02:45:00,
2013-03-02 21:50:00,20.4,14.1,29.92,NNW,337,0.0,0.0,76,0.00,,,0.00,WUHU21623XXSP,2013-03-03 02:50:00,
2013-03-02 21:55:00,20.4,14.1,29.92,NNW,337,0.0,0.0,76,0.00,,,0.00,WUHU21623XXSP,2013-03-03 02:55:00,
2013-03-02 22:00:00,20.6,14.3,29.92,NNW,337,0.0,0.0,76,0.00,,,0.00,WUHU21623XXSP,2013-03-03 03:00:00,
2013-03-02 22:05:00,20.8,14.5,29.92,NNW,337,0.0,0.0,76,0.00,,,0.00,WUHU21623XXSP,2013-03-03 03:05:00,
2013-03-02 22:10:00,20.8,14.5,29.92,NNW,337,0.0,0.0,76,0.00,,,0.00,WUHU21623XXSP,2013-03-03 03:10:00,
2013-03-02 22:15:00,21.0,14.6,29.92,NNW,337,0.0,0.0,76,0.00,,,0.00,WUHU21623XXSP,2013-03-03 03:15:00,
2013-03-02 22:20:00,21.1,14.7,29.92,NNE,22,0.0,0.0,76,0.00,,,0.00,WUHU21623XXSP,2013-03-03 03:20:00,
2013-03-02 22:27:00,21.3,14.9,29.92,NE,45,0.0,6.3,76,0.00,,,0.00,WUHU21623XXSP,2013-03-03 03:27:00,
2013-03-02 22:57:00,21.3,14.6,29.92,NNE,22,0.0,0.0,75,0.00,,,0.00,WUHU21623XXSP,2013-03-03 03:57:00,
2013-03-02 23:02:00,21.3,14.6,29.92,NNE,22,0.0,0.0,75,0.00,,,0.00,WUHU21623XXSP,2013-03-03 04:02:00,
2013-03-02 23:07:00,21.1,14.4,29.92,NNE,22,0.0,0.0,75,0.00,,,0.00,WUHU21623XXSP,2013-03-03 04:07:00,
2013-03-02 23:12:00,21.1,14.4,29.91,NNE,22,0.0,0.0,75,0.00,,,0.00,WUHU21623XXSP,2013-03-03 04:12:00,
2013-03-02 23:17:00,21.0,14.3,29.91,NNE,22,0.0,0.0,75,0.00,,,0.00,WUHU21623XXSP,2013-03-03 04:17:00,
2013-03-02 23:22:00,20.8,14.2,29.91,NE,45,0.0,0.0,75,0.00,,,0.00,WUHU21623XXSP,2013-03-03 04:22:00,
2013-03-02 23:27:00,20.8,14.2,29.91,NE,45,0.0,0.0,75,0.00,,,0.00,WUHU21623XXSP,2013-03-03 04:27:00,
2013-03-02 23:32:00,20.8,14.2,29.91,NE,45,0.0,0.0,75,0.00,,,0.00,WUHU21623XXSP,2013-03-03 04:32:00,